Wind_Speed
9 9 8 7 7 7 7 7 7 8 9 9 10 11 13 13 14 14 15 16 17 17 18 19 19 19 20 20 21 22 22 21 22 23 24 25 25 25 25 26 26 26 25 24
8 8 8 8 7 6 6 6 8 9 9 9 10 12 13 14 15 15 16 17 18 18 19 19 19 20 21 22 22 23 22 22 22 23 23 24 24 25 25 26 26 26 25 24
8 8 8 8 7 6 7 7 8 9 10 10 11 12 13 14 15 16 17 17 18 19 19 19 20 21 22 23 23 23 22 22 22 23 23 24 25 25 26 26 26 26 25 24
9 9 8 8 8 8 7 8 9 10 10 11 12 13 14 14 15 16 17 18 18 19 20 20 21 21 22 23 23 22 22 21 22 22 23 24 24 25 25 25 25 24 23 23
8 8 8 8 8 8 8 9 9 10 11 11 13 13 14 14 15 16 17 18 19 20 20 20 21 21 21 21 21 21 21 22 22 23 23 24 24 24 24 24 24 23 22 21
8 9 10 9 8 8 9 9 10 11 11 12 12 12 13 14 15 17 18 18 18 19 20 20 20 20 20 20 20 20 20 21 22 22 22 22 22 22 22 22 22 22 21 21
9 10 10 10 9 10 10 10 11 11 12 12 13 13 13 15 15 17 18 18 19 20 20 19 19 19 19 20 20 19 19 20 20 20 21 21 21 21 21 22 21 20 20 20
10 11 11 10 9 10 10 10 10 12 12 13 14 14 14 15 15 17 17 17 18 19 19 19 18 19 18 18 18 18 18 19 19 19 19 20 20 20 20 20 19 19 20 20
10 11 12 11 11 11 11 11 11 12 12 13 14 14 14 15 16 17 17 18 18 18 18 17 17 18 18 18 17 17 17 18 18 18 18 19 18 18 19 19 19 19 18 17
12 12 13 13 13 12 12 12 12 12 13 13 15 16 16 16 16 17 17 18 18 18 17 17 17 18 18 17 17 17 18 18 17 18 17 17 18 18 18 18 18 17 16 16
14 15 15 14 14 14 14 14 13 13 14 14 15 16 17 17 17 17 18 18 18 17 17 16 16 16 17 17 16 16 17 16 16 16 16 16 17 17 16 16 16 15 15 15
16 16 16 16 16 15 15 15 14 15 15 16 16 16 18 17 17 17 17 18 18 16 15 15 15 15 15 16 16 16 16 16 16 16 15 16 16 16 15 15 14 14 14 15
18 17 17 16 16 16 16 16 16 16 17 17 17 17 18 18 17 17 17 17 16 15 14 14 14 13 14 14 15 15 15 16 15 15 15 16 15 14 14 15 14 14 15 16
19 19 18 17 17 17 17 17 17 17 17 17 17 17 18 18 17 17 16 15 15 14 14 14 13 13 13 14 14 14 14 15 14 14 15 15 14 14 14 14 14 15 16 17
21 21 20 19 19 18 18 18 18 18 18 18 18 18 18 18 17 16 16 15 14 14 13 13 13 13 13 14 14 14 13 13 13 13 14 14 14 14 14 15 15 16 16 17
22 22 21 21 20 20 20 20 19 19 19 19 19 19 18 17 17 16 16 14 14 13 13 13 13 12 13 14 14 14 13 13 13 13 13 14 15 14 14 14 15 16 16 16
23 23 23 22 22 22 22 20 20 20 20 20 20 20 19 18 17 16 15 14 13 13 13 12 12 12 13 14 14 13 13 13 13 13 13 14 14 14 14 15 15 15 15 15
24 24 24 24 24 25 23 22 22 22 22 21 21 20 19 18 17 16 16 15 14 13 13 12 12 12 13 14 13 13 13 13 13 13 13 13 13 13 14 14 14 14 14 14
25 24 25 25 25 26 25 23 23 23 23 23 22 21 19 18 16 16 15 15 14 13 13 13 13 14 14 14 13 13 14 13 13 12 12 12 12 12 13 14 14 14 14 14
26 26 26 26 27 27 27 26 25 24 24 23 22 21 20 18 17 17 16 15 15 14 14 14 14 14 14 14 14 14 13 13 13 12 12 12 11 11 12 13 14 13 14 14
27 27 27 27 28 28 28 27 25 25 25 24 23 22 21 20 19 18 17 17 17 15 14 14 14 14 14 14 14 13 13 13 12 12 12 12 11 11 12 13 13 13 14 15
27 27 28 27 28 29 28 27 27 27 27 26 24 23 22 21 20 19 19 19 18 16 15 16 16 15 15 14 14 14 13 12 12 11 11 11 10 11 12 12 12 12 13 14
28 28 28 29 29 30 29 29 28 27 27 26 25 23 23 22 21 20 20 19 18 17 17 17 17 16 16 15 14 13 12 12 11 11 11 11 10 11 11 11 11 12 13 14
29 29 29 29 29 29 29 28 28 27 27 27 26 25 24 23 22 21 21 20 19 18 18 17 17 17 16 15 14 13 13 13 13 12 12 12 12 12 12 11 11 12 12 13
29 29 29 30 29 29 29 29 28 28 27 27 27 26 26 24 23 23 22 21 20 19 19 19 18 18 17 16 15 15 14 13 13 13 13 13 13 13 13 12 12 12 14 14
29 29 28 29 29 29 28 28 29 29 28 27 27 27 26 25 25 24 23 22 21 20 20 20 19 18 17 17 16 15 14 14 13 13 13 13 14 13 13 13 13 14 14 14
Wind_Direction
203 202 206 210 209 219 227 232 242 257 266 275 279 281 283 286 290 292 295 298 302 301 299 297 296 296 295 295 295 294 294 296 298 300 300 301 303 304 305 305 306 304 299 296
198 206 208 213 218 225 232 242 255 263 270 280 284 284 283 287 290 291 293 297 300 300 298 297 297 297 296 296 296 295 294 294 297 299 301 302 304 306 308 309 308 307 303 299
196 208 210 215 224 239 250 257 259 268 278 287 288 289 287 287 290 291 292 296 299 298 299 299 297 298 297 296 296 296 296 294 296 299 301 303 303 305 307 308 308 307 304 301
204 213 219 226 239 251 259 271 275 282 293 293 292 291 289 291 294 298 298 297 299 301 301 301 302 301 302 299 297 297 298 297 299 301 302 303 305 306 308 308 308 307 306 304
216 222 227 234 242 250 261 268 276 283 290 290 293 294 293 293 296 302 303 301 302 303 306 307 306 305 305 304 303 300 300 300 301 303 304 304 305 307 309 309 310 309 309 309
223 228 230 238 243 253 264 270 280 288 295 293 292 292 295 295 299 303 303 304 305 306 306 306 307 308 307 306 305 305 302 303 304 305 306 306 308 310 313 312 311 311 311 311
238 241 244 249 254 260 266 277 290 295 294 293 292 294 298 299 303 307 308 308 308 307 309 309 310 311 309 307 308 309 309 309 309 308 308 309 311 313 315 314 313 313 314 313
241 248 254 255 257 264 270 273 275 281 283 287 293 297 302 304 307 310 312 310 310 311 312 312 312 313 314 313 316 316 315 316 315 314 312 312 315 316 317 317 316 316 315 315
244 249 254 256 259 264 270 272 271 277 284 289 293 300 307 309 309 311 315 315 315 316 315 314 313 314 315 317 320 322 321 320 319 320 319 318 320 320 320 320 320 319 318 316
247 251 257 258 260 262 266 270 273 278 285 289 295 300 304 309 311 312 314 318 317 318 317 315 314 314 317 318 320 322 322 322 323 323 322 323 324 323 323 323 321 321 321 321
250 255 260 264 265 268 268 268 271 275 281 288 293 297 300 305 309 313 314 317 317 315 316 317 315 317 318 318 319 323 325 326 327 329 328 330 329 327 327 326 324 324 325 324
251 257 262 265 267 266 267 271 275 278 286 289 290 295 299 304 306 310 313 315 317 316 316 318 318 316 318 319 320 324 327 329 329 332 334 335 335 335 336 336 332 329 330 330
255 257 262 266 270 270 268 269 273 278 284 288 290 296 297 303 305 306 308 311 315 319 318 318 317 315 316 320 323 329 332 334 336 339 340 340 341 342 342 341 339 336 336 335
255 255 256 258 263 268 271 271 273 278 283 286 288 291 293 300 301 303 305 307 311 315 316 315 314 314 315 320 324 327 331 335 338 341 343 344 344 346 346 344 342 341 341 339
254 255 256 257 261 264 268 271 274 277 280 283 286 288 292 296 299 301 303 304 308 310 313 314 312 311 313 318 322 325 329 333 338 341 342 344 347 348 349 349 348 345 345 346
255 256 258 260 263 265 268 270 273 276 280 282 283 285 290 293 295 298 300 302 305 308 310 311 312 311 312 316 320 324 327 331 336 338 339 342 345 348 350 353 352 352 353 356
256 257 259 261 263 265 266 270 272 275 278 280 282 285 289 291 291 293 295 298 300 305 307 306 308 309 313 316 320 323 326 329 331 332 334 339 344 347 349 350 354 356 356 357
257 258 261 263 264 266 269 270 270 273 275 278 280 282 286 289 287 287 289 291 293 298 303 304 306 307 310 315 318 321 323 324 325 326 328 333 336 339 344 350 352 353 355 357
256 258 260 263 265 268 268 269 271 271 272 274 277 279 282 285 283 283 284 284 287 293 297 299 303 306 308 311 312 316 320 320 319 323 324 327 330 337 346 348 350 351 352 354
256 257 259 262 265 267 269 271 271 272 271 271 274 276 277 280 280 280 279 281 285 290 293 295 297 302 304 305 305 306 313 316 316 320 324 323 328 337 345 347 351 353 353 354
259 258 259 261 264 266 267 269 270 270 271 274 274 274 274 275 275 276 277 278 281 285 287 289 293 296 299 301 301 302 307 312 315 318 325 330 333 336 341 344 348 350 352 353
261 260 259 260 262 263 264 264 266 268 270 272 274 274 274 273 273 274 275 276 277 278 282 286 289 290 291 292 293 297 302 307 313 316 322 327 329 332 338 342 345 346 349 352
261 259 259 259 261 261 262 263 263 265 268 269 270 271 272 271 271 273 273 274 274 276 279 284 286 285 285 284 285 291 294 299 306 310 314 318 323 328 331 337 341 343 347 349
259 258 258 259 259 259 260 260 261 263 264 266 266 268 270 269 269 271 273 273 273 274 277 278 281 282 282 281 281 284 285 290 299 303 308 310 314 320 326 329 333 338 343 347
259 258 258 260 260 261 259 259 260 261 262 261 261 263 266 267 268 269 270 270 271 272 273 274 276 278 279 278 278 281 281 285 291 295 300 303 307 312 317 322 326 330 336 339
260 260 261 261 261 259 258 258 258 259 260 261 260 260 263 265 267 268 267 267 268 270 271 271 273 275 276 276 275 278 281 283 286 292 296 298 301 305 309 313 316 320 325 331
Height
5854 5857 5859 5861 5862 5864 5865 5866 5866 5866 5866 5866 5865 5864 5863 5862 5861 5859 5857 5855 5853 5851 5849 5846 5844 5842 5840 5839 5837 5834 5832 5830 5827 5825 5822 5820 5817 5814 5811 5808 5804 5801 5798 5795
5855 5857 5858 5859 5861 5862 5863 5864 5865 5865 5864 5863 5863 5862 5861 5860 5858 5856 5854 5852 5850 5847 5845 5843 5840 5838 5836 5834 5831 5829 5827 5825 5822 5819 5817 5814 5811 5808 5805 5801 5798 5794 5791 5788
5855 5857 5857 5859 5860 5861 5862 5863 5863 5862 5862 5861 5860 5860 5858 5857 5855 5853 5851 5849 5846 5844 5841 5838 5836 5833 5831 5829 5826 5824 5821 5819 5817 5814 5811 5808 5805 5802 5799 5795 5791 5788 5784 5781
5854 5855 5856 5858 5859 5859 5861 5861 5860 5860 5860 5860 5859 5858 5856 5854 5852 5849 5847 5845 5843 5840 5837 5834 5832 5829 5826 5823 5820 5818 5815 5813 5811 5808 5805 5802 5800 5797 5793 5789 5785 5782 5778 5774
5854 5855 5855 5856 5857 5857 5858 5859 5858 5858 5857 5857 5856 5855 5854 5851 5849 5846 5844 5841 5839 5836 5833 5830 5827 5824 5821 5818 5815 5812 5810 5808 5805 5803 5800 5797 5794 5791 5787 5784 5780 5776 5772 5769
5853 5853 5854 5855 5855 5855 5856 5857 5856 5855 5855 5855 5854 5853 5851 5848 5846 5843 5841 5838 5835 5832 5829 5826 5823 5820 5817 5814 5811 5808 5805 5802 5800 5797 5795 5792 5789 5785 5782 5778 5775 5771 5768 5764
5851 5852 5852 5853 5853 5854 5854 5855 5855 5855 5854 5853 5851 5849 5848 5845 5842 5840 5837 5834 5832 5829 5825 5822 5819 5816 5813 5810 5807 5804 5801 5798 5795 5793 5790 5787 5784 5780 5777 5773 5770 5766 5763 5760
5850 5851 5851 5851 5851 5851 5851 5852 5853 5853 5852 5851 5847 5846 5845 5841 5839 5837 5834 5831 5828 5825 5822 5818 5815 5812 5809 5806 5803 5800 5797 5794 5791 5788 5785 5782 5779 5776 5772 5769 5765 5762 5759 5756
5848 5849 5848 5848 5848 5849 5848 5848 5849 5848 5847 5846 5845 5843 5841 5838 5835 5833 5830 5827 5824 5821 5818 5815 5812 5809 5806 5803 5800 5797 5794 5791 5788 5785 5781 5778 5775 5772 5768 5765 5762 5758 5755 5752
5844 5845 5845 5845 5845 5845 5845 5845 5845 5844 5844 5843 5842 5840 5838 5834 5832 5830 5827 5824 5821 5817 5814 5812 5809 5806 5803 5799 5796 5793 5790 5787 5784 5781 5778 5775 5772 5768 5765 5761 5758 5755 5752 5749
5841 5842 5842 5842 5841 5842 5841 5841 5841 5841 5840 5840 5839 5839 5834 5831 5829 5826 5823 5820 5817 5814 5811 5809 5806 5803 5800 5797 5794 5791 5787 5784 5781 5778 5775 5772 5768 5765 5762 5758 5755 5752 5749 5746
5836 5837 5837 5838 5837 5837 5837 5837 5837 5837 5836 5835 5834 5836 5829 5827 5824 5822 5819 5817 5814 5810 5808 5805 5803 5800 5797 5794 5792 5788 5785 5782 5779 5776 5773 5770 5766 5763 5760 5756 5753 5750 5747 5744
5832 5833 5833 5834 5835 5833 5832 5832 5832 5832 5831 5830 5830 5831 5825 5823 5820 5818 5816 5813 5810 5808 5805 5802 5800 5798 5795 5792 5789 5786 5783 5780 5777 5774 5771 5768 5765 5762 5758 5755 5751 5748 5745 5741
5826 5827 5829 5830 5829 5828 5828 5828 5827 5827 5827 5826 5825 5824 5821 5819 5817 5814 5812 5810 5807 5805 5802 5800 5798 5795 5793 5790 5787 5784 5781 5779 5776 5773 5770 5767 5764 5760 5757 5753 5750 5747 5743 5739
5821 5822 5822 5823 5823 5823 5822 5822 5822 5822 5822 5821 5820 5818 5816 5815 5813 5811 5808 5806 5804 5802 5800 5797 5795 5793 5791 5788 5785 5782 5780 5777 5775 5772 5769 5766 5763 5759 5756 5752 5749 5745 5742 5738
5815 5816 5817 5817 5817 5816 5816 5817 5817 5817 5816 5815 5814 5813 5812 5810 5808 5807 5805 5803 5801 5799 5797 5795 5793 5790 5788 5786 5784 5781 5778 5776 5774 5771 5768 5765 5762 5758 5755 5751 5747 5744 5740 5737
5809 5810 5810 5811 5811 5810 5810 5812 5811 5811 5811 5810 5809 5809 5807 5806 5804 5803 5801 5799 5798 5796 5794 5792 5790 5788 5786 5784 5782 5779 5777 5774 5772 5770 5767 5764 5761 5758 5754 5750 5747 5743 5740 5736
5802 5803 5803 5804 5805 5804 5807 5806 5806 5805 5804 5804 5803 5803 5801 5801 5800 5798 5797 5795 5794 5793 5791 5789 5787 5785 5784 5782 5779 5777 5775 5773 5770 5768 5765 5763 5760 5757 5753 5750 5746 5743 5739 5736
5795 5796 5797 5797 5797 5798 5799 5799 5799 5799 5798 5798 5797 5797 5796 5795 5794 5794 5793 5791 5790 5789 5787 5786 5784 5782 5781 5779 5777 5775 5773 5771 5768 5766 5763 5761 5758 5755 5752 5749 5746 5742 5739 5735
5787 5788 5789 5790 5790 5791 5792 5792 5792 5793 5791 5791 5791 5790 5790 5790 5790 5789 5788 5787 5786 5785 5783 5782 5781 5779 5777 5776 5774 5772 5771 5768 5766 5764 5761 5759 5757 5754 5751 5748 5745 5741 5738 5734
5779 5780 5781 5781 5782 5782 5784 5784 5785 5786 5785 5784 5784 5784 5784 5784 5784 5784 5783 5782 5781 5780 5779 5778 5777 5775 5774 5772 5771 5769 5768 5766 5764 5762 5759 5757 5755 5752 5750 5747 5744 5740 5737 5733
5770 5771 5772 5773 5774 5776 5775 5776 5777 5777 5777 5777 5777 5777 5777 5777 5777 5777 5777 5777 5776 5775 5774 5773 5772 5771 5770 5769 5767 5766 5765 5763 5761 5759 5757 5755 5753 5751 5748 5746 5743 5739 5736 5733
5761 5762 5763 5764 5766 5765 5766 5767 5767 5768 5769 5769 5769 5770 5770 5770 5770 5770 5770 5770 5770 5770 5769 5768 5767 5766 5765 5764 5763 5762 5761 5760 5758 5757 5755 5753 5751 5749 5747 5744 5741 5738 5735 5732
5752 5752 5753 5754 5755 5756 5757 5757 5758 5759 5760 5761 5761 5762 5763 5763 5763 5763 5764 5764 5764 5764 5763 5763 5762 5761 5761 5760 5759 5758 5757 5756 5755 5754 5752 5751 5749 5747 5744 5742 5739 5737 5734 5730
5743 5743 5743 5744 5746 5746 5747 5748 5749 5750 5751 5752 5753 5754 5755 5756 5756 5757 5757 5757 5757 5757 5757 5757 5756 5756 5756 5755 5754 5754 5753 5752 5751 5750 5749 5748 5746 5744 5742 5739 5737 5735 5732 5729
5734 5734 5735 5736 5736 5737 5738 5739 5740 5741 5742 5743 5745 5746 5747 5748 5748 5749 5749 5750 5750 5750 5750 5750 5750 5750 5750 5750 5749 5749 5748 5748 5747 5746 5745 5744 5742 5740 5738 5736 5734 5732 5729 5726